www.pogodaiklimat.ru

Погода и климат >> Архив погоды >> Аргентина >> Буэнос-Айрес аэропорт


АРХИВ ПОГОДЫ в Буэнос-Айресе аэропорт

Время (UTC), дата Ветер
(напр.,м/с)
 
Видим.   Явления Облачность Т
(С)
Тd
(С)
f
(%)
Тe
(С)
Тes
(С)
Комфортность P
(гПа)
Po
(гПа)
Тmin
(С)
Tmax
(С)
R
(мм)
R24
(мм)
S
(см)
18 14.05 В 5 10 км 5/5 840 м
[Sc]
+15.7 +8.5 62 +15 +16 по сезону 1029.1 1028.4
21 14.05 В 5 10 км 3/3 900 м
[Sc]
+14.3 +8.6 69 +13 +13 прохладно 1028.7 1028.0
00 15.05 В 6 10 км 1/1 750 м
[Sc]
+15.1 +11.0 76 +13 +13 по сезону 1028.7 1028.0 +12.2 +16.0
03 15.05 В 7 10 км ясно +15.7 +10.5 71 +14 +14 по сезону 1028.7 1028.0
06 15.05 СВ 6 10 км ясно +15.0 +9.9 72 +13 +13 по сезону 1028.3 1027.6
09 15.05 СВ 5 10 км ясно +15.1 +10.4 73 +14 +14 по сезону 1027.9 1027.2
12 15.05 С 4 10 км ясно +16.0 +10.0 68 +15 +16 тепло 1028.8 1028.1 +13.8 +16.5
15 15.05 СВ 4 10 км 4/4 700 м
[Sc Ac und]
+17.2 +11.8 71 +17 +20 тепло 1029.1 1028.4
18 15.05 СВ 2 10 км 6/6 1110 м
[Sc]
+17.5 +11.7 69 +18 +20 тепло 1026.4 1025.7
21 15.05 В 4 10 км ясно +16.5 +13.0 80 +16 +16 по сезону 1025.7 1025.0
00 16.05 В 3 10 км ясно +16.9 +13.8 82 +17 +17 тепло 1025.9 1025.2 +15.3 +18.1
03 16.05 З 1 10 км ясно +14.7 +12.2 85 +15 +15 по сезону 1026.2 1025.6
06 16.05 СВ 2 10 км ясно +16.7 +13.0 79 +17 +17 тепло 1025.6 1024.9
09 16.05 СЗ 2 10 км 4/0
[Ac As]
+15.2 +12.3 83 +15 +15 тепло 1025.2 1024.5
12 16.05 С 3 10 км 5/0
[Ac trans]
+16.4 +12.1 76 +16 +17 тепло 1025.9 1025.2 +14.3 +16.9
15 16.05 С 4 10 км 3/0
[Ac trans]
+18.9 +15.2 79 +20 +24 тепло 1025.2 1024.5
18 16.05 СВ 3 10 км 1/0
[Ci fib]
+21.2 +15.9 72 +25 +29 комфорт 1022.3 1021.6
21 16.05 В 3 10 км 4/0
[Cs]
+19.8 +16.0 79 +22 +22 комфорт 1021.3 1020.6
00 17.05 В 5 10 км 9/0
[Cs]
+19.4 +14.5 73 +21 +21 комфорт 1021.3 1020.6 +16.2 +21.9
03 17.05 С 5 10 км 9/0
[Cs]
+18.7 +15.5 82 +19 +19 тепло 1021.3 1020.6
06 17.05 С 6 10 км 8/0
[Cs]
+18.0 +15.7 86 +18 +18 тепло 1020.3 1019.6
09 17.05 С 5 10 км 6/1 450 м
[St Cs]
+17.4 +15.0 86 +17 +17 тепло 1019.4 1018.8
12 17.05 С 4 10 км 6/1 450 м
[St Cs]
+17.2 +14.6 85 +17 +17 тепло 1019.8 1019.2 +16.9 +19.4
15 17.05 С 4 10 км 6/0
[Cs]
+18.9 +15.2 79 +20 +24 тепло 1018.5 1017.8
18 17.05 В 2 10 км 6/0
[Cs]
+21.4 +16.5 74 +25 +29 комфорт 1015.0 1014.4
21 17.05 СВ 3 10 км 8/0
[Cs]
+21.0 +17.0 78 +25 +25 комфорт 1014.0 1013.3
00 18.05 СВ 4 10 км 6/0
[Cs]
+20.0 +16.9 82 +23 +23 комфорт 1015.0 1014.4 +17.2 +21.6
03 18.05 С 4 10 км 6/0
[Cs]
+19.5 +15.5 78 +21 +21 комфорт 1015.9 1015.2
06 18.05 С 4 10 км 8/0
[Ac As Cs]
+18.5 +15.3 82 +19 +19 тепло 1016.7 1016.0
09 18.05 С 5 10 км 5/0
[Ac As]
+17.8 +15.1 84 +17 +17 тепло 1016.0 1015.3
12 18.05 С 5 10 км 6/0
[Ac trans Ci]
+17.7 +15.5 87 +17 +18 тепло 1016.5 1015.8 +17.0 +20.5
15 18.05 С 4 10 км 5/0
[Ci]
+19.8 +16.5 81 +22 +27 комфорт 1016.5 1015.8
18 18.05 С 2 10 км 9/4 900 м
[Cu Sc Cs]
+22.1 +18.3 79 +27 +29 душно 1014.6 1013.8
21 18.05 С 2 10 км 9/4 1050 м
[Cu med, cong Ac As Cs]
+21.4 +18.6 84 +26 +26 душно 1014.5 1013.8
00 19.05 СВ 3 10 км {гроза} 10/0
[Ac As]
+19.8 +17.9 89 +23 +23 комфорт 1015.3 1014.6 +17.3 +23.5 2
03 19.05 Ю 2 9000 м слаб. дождь 10/5 1050 м
[Sc Ac As]
+18.8 +17.3 91 +21 +21 комфорт 1016.8 1016.1
06 19.05 Ю 2 10 км в посл. час дождь 10/10 240 м
[St]
+15.3 +14.3 94 +15 +15 тепло 1016.8 1016.1 6
09 19.05 Ю 3 10 км 9/9 360 м
[St]
+14.7 +12.9 89 +14 +14 тепло 1017.0 1016.4
12 19.05 Ю 4 10 км 3/3 360 м
[St]
+13.6 +11.4 87 +12 +13 по сезону 1018.9 1018.2 +13.3 +20.1 8
15 19.05 В 4 8000 м дымка 9/9 420 м
[St]
+15.0 +12.5 85 +14 +14 по сезону 1019.5 1018.8
18 19.05 Ю 2 10 км 6/6 480 м
[St]
+15.8 +11.4 75 +16 +18 по сезону 1018.1 1017.4
21 19.05 В 4 10 км 3/1 600 м
[Sc Ci fib]
+14.5 +11.9 84 +13 +13 по сезону 1018.1 1017.4
00 20.05 В 4 10 км 3/3 450 м
[Sc]
+14.5 +11.7 83 +13 +13 по сезону 1019.0 1018.4 +13.4 +16.5
03 20.05 ЮВ 3 10 км 5/5 700 м
[Sc]
+15.0 +12.1 83 +14 +14 по сезону 1019.6 1018.9
06 20.05 ЮВ 4 10 км 8/4 630 м
[Sc Cs]
+14.5 +10.8 78 +13 +13 по сезону 1019.0 1018.4
09 20.05 ЮВ 6 10 км 6/1 600 м
[Sc Ac und Ci]
+13.7 +10.7 82 +11 +11 по сезону 1017.9 1017.2
12 20.05 ЮВ 7 10 км 9/3 600 м
[Sc Ac As]
+14.3 +11.1 81 +12 +12 по сезону 1018.5 1017.8 +13.3 +15.3
15 20.05 В 9 10 км 9/5 700 м
[Sc Ac As]
+16.5 +11.2 71 +15 +15 по сезону 1018.7 1018.0
18 20.05 В 9 10 км 9/4 1200 м
[Sc Ac As]
+16.6 +11.1 70 +15 +15 по сезону 1016.4 1015.7
21 20.05 ЮВ 7 5000 м слаб. дождь 10/5 660 м
[Sc Ac As]
+16.2 +12.4 78 +15 +15 по сезону 1015.9
00 21.05 ЮВ 8 10 км в посл. час дождь 10/6 450 м
[St As op]
+14.9 +12.7 87 +13 +13 по сезону 1016.4 1015.7 +14.1 +17.2 4
03 21.05 ЮВ 10 10 км 10/10 400 м
[St]
+15.4 +12.9 85 +13 +13 по сезону 1016.9 1016.2
06 21.05 Ю 5 900 м гроза, ливневой дождь 10/10 420 м
[Cb cap]
+12.9 +12.2 96 +11 +11 по сезону 1019.5 1018.8 7
09 21.05 Ю 5 10 км {гроза} 10/6 450 м
[St Ac As]
+13.9 +11.5 85 +12 +12 по сезону 1018.4 1014.7
12 21.05 Ю 4 10 км {гроза} 8/4 450 м
[St Ac As Cs]
+14.1 +11.7 85 +13 +13 по сезону 1019.9 1019.2 +12.7 +15.6 21
15 21.05 Ю 4 10 км 10/10 420 м
[Frnb]
+15.2 +11.7 80 +14 +14 по сезону 1021.0 1020.4

 

Местоположение метеостанции Буэнос-Айрес аэропорт (Аргентина): широта -34.56 долгота -58.41 высота над уровнем моря 6 м.

В архиве по умолчанию представлена погода в Буэнос-Айресе аэропорт за последнюю неделю. Архивные данные за месяц целиком и за предыдущие месяцы, начиная с января 2011 года, Вы можете получить, выбрав интересующий диапазон дат из раскрывающегося списка и нажав кнопку "Ввод!".


*Определитесь, кто Вы:
робот инопланетянин человек

Внимание! Время в таблицах - всемирное. Для получения местного времени необходимо прибавить поправку, которая равна -3 ч.

Смотрите также архив погоды в соседних городах и на ближайших метеорологических станциях:

Погода в Буэнос-Айресе (Аргентина) (7 км)
Погода в Эсейсе (Аргентина) (30 км)
Погода в Колонии (Уругвай) (55 км)
Погода в Ла-Плате (Аргентина) (64 км)
Погода в Мерседесе (Уругвай) (149 км)
Погода в Гуалегуайчу (Аргентина) (174 км)
Погода в Лас Флоресе (Аргентина) (179 км)
Погода в Мелилье (Уругвай) (199 км)
Погода в Прадо (Уругвай) (205 км)
Погода в Долоресе (Аргентина) (206 км)

Пояснения к столбцам:

Ветер - указаны скорость ветра в м/с - средняя за 10 мин, порывы в срок и между сроками (в фигурных скобках) и направление, откуда дует ветер: С - северный, СВ - северо-восточный, В - восточный, ЮВ - юго-восточный, Ю - южный, ЮЗ - юго-западный, З - западный, СЗ - северо-западный.
Видимость - горизонтальная дальность видимости в метрах или километрах. При видимости от 1 до 10 км при отсутствии осадков обычно наблюдается дымка, при ухудшении видимости до 1 км и менее - туман. В сухую погоду видимость может ухудшаться дымом, пылью или мглою.
Явления - указаны атмосферные явления, наблюдавшиеся в срок или в последний час перед сроком; фигурными скобками обозначены явления, наблюдавшиеся между сроками (за 1-3 часа до срока); квадратными скобками обозначены град или гололедные отложения с указанием их диаметра в мм.
Облачность - указаны через наклонную черту общая и нижняя облачность в баллах и высота нижней границы облаков в метрах; квадратными скобками обозначены формы облаков: Ci - перистые, Cs - перисто-слоистые, Cc - перисто-кучевые, Ac - высококучевые, As - высокослоистые, Sc - слоисто-кучевые, Ns - слоисто-дождевые, Cu - кучевые, Cb - кучево-дождевые. Подробнее классификацию облаков см. в Атласе облаков (PDF).
T - Температура воздуха - температура, измеренная на высоте 2 м над землей.
Td - Температура точки росы - температура, при понижении до которой содержащийся в воздухе водяной пар достигнет насыщения.
f - Относительная влажность воздуха - влажноcть воздуха, измеренная на высоте 2 м над землей.
Te - Эффективная температура - температура, которую ощущает одетый по сезону человек в тени. Характеристика душности погоды. При расчете учитывается влияние влажности воздуха и скорости ветра на теплоощущения человека.
Tes - Эффективная температура на солнце - температура, которую ощущает человек, с поправкой на солнечный нагрев. Характеристика знойности погоды. Зависит от высоты солнца над горизонтом, облачности и скорости ветра. Ночью, в пасмурную погоду, а также при ветре 12 м/с и более поправка равна нулю.
P - Атмосферное давление - приведенное к уровню моря атмосферное давление.
Po - Атмосферное давление - измеренное на уровне метеостанции атмосферное давление.
Tmin - Минимальная температура - минимум температуры воздуха на высоте 2 м над землей.
Tmax - Максимальная температура - максимум температуры воздуха на высоте 2 м над землей.
R - Количество осадков - Количество выпавших осадков за период времени, мм. При наведении курсора мыши на число - период времени, за который выпало указанное количество осадков.
R24 - Количество осадков - Количество выпавших осадков за 24 часа, мм.
S - Снежный покров - Высота снежного покрова, см. При наведении курсора мыши на число - состояние снежного покрова и степень покрытия местности в баллах.